Location: Bothwell
(42.3833°S, 147.0000°E)
Time: 21:51:35
(UTC+11:00)

CAS-4A - Pass Details

Date: 27 September 2022
Orbit: 517 x 534 km, 43.0° (Epoch: 04 December)

Event Time Altitude Azimuth Distance (km) Brightness Sun altitude
Exits shadow 02:59:23 19° 91° (E) 1,293 ? -30.9°
Drops below altitude 10° 03:00:39 10° 90° (E) 1,782 ? -30.7°
Enters shadow 04:01:19 -62° 256° (WSW) 11,878 ? -21.0°
Maximum altitude 04:36:29 58° 340° (NNW) 626 ? -14.8°
